Skip Page Navigation
NASA JPL Caltech
NASA Logo - Jet Propulsion Laboratory + View the NASA Portal
+ Center for Near-Earth Object Studies
JPL Home Earth Solar System Stars & Galaxies Technology
JPL Solar System Dynamics
BODIES ORBITS EPHEMERIDES TOOLS PHYSICAL DATA DISCOVERY FAQ SITE MAP
IMPORTANT: The SSD Announcement email list is now available. Major changes are coming in the near future, including possible hostname and/or URL changes. To be notified of such changes, subscribe to this email list.

Please visit this page for more details.


JPL Small-Body Database Browser
Search: [ help ]  
233290 (2006 AM96)
Classification: Main-belt Asteroid          SPK-ID: 2233290
Ephemeris | Orbit Diagram | Orbital Elements | Mission Design | Physical Parameters | Discovery Circumstances | Close-Approach Data ]

[ show orbit diagram ]
Orbital Elements at Epoch 2458600.5 (2019-Apr-27.0) TDB
Reference: JPL 13 (heliocentric ecliptic J2000)
 Element Value Uncertainty (1-sigma)   Units 
e .21920591332485 6.0991e-08  
a 2.54705841916418 1.9917e-08 au
q 1.988728152099547 1.5138e-07 au
i 5.680644485714695 5.9244e-06 deg
node 205.3062083242434 6.554e-05 deg
peri 206.7777921101622 6.7489e-05 deg
M 154.7033541805139 2.0472e-05 deg
tp 2457962.451025418681
(2017-Jul-27.95102542)
8.1404e-05 TDB
period 1484.761801487864
4.07
1.7415e-05
4.768e-08
d
yr
n .242463134247694 2.8439e-09 deg/d
Q 3.105388686228812 2.4283e-08 au
  Orbit Determination Parameters
   # obs. used (total)      240  
   data-arc span      9718 days (26.61 yr)  
   first obs. used      1992-09-30  
   last obs. used      2019-05-10  
   planetary ephem.      DE431  
   SB-pert. ephem.      SB431-N16  
   condition code      0  
   norm. resid. RMS      .69002  
   source      ORB  
   producer      Otto Matic  
   solution date      2019-May-30 08:32:00  

Additional Information
 Earth MOID = 1.00082 au 
 Jupiter MOID = 2.27858 au 
 T_jup = 3.401 
[ hide covariance matrix ]
Orbital Elements at Epoch 2456893.5 (2014-Aug-24.0) TDB
Reference: JPL 13 (heliocentric ecliptic J2000)
 Element Value Uncertainty (1-sigma)   Units 
e .2199992393635593 6.1112e-08  
q 1.986116041204036 1.5193e-07 au
tp 2456479.294460283305
(2013-Jul-05.79446028)
7.6644e-05 TDB
node 205.3188741096203 6.554e-05 deg
peri 206.9196417916416 6.7465e-05 deg
i 5.681372045064837 5.9256e-06 deg
  Orbit Determination Parameters
   # obs. used (total)      240  
   data-arc span      9718 days (26.61 yr)  
   first obs. used      1992-09-30  
   last obs. used      2019-05-10  
   planetary ephem.      DE431  
   SB-pert. ephem.      SB431-N16  
   condition code      0  
   norm. resid. RMS      .69002  
   source      ORB  
   producer      Otto Matic  
   solution date      2019-May-30 08:32:00  

Additional Information
 Jupiter MOID = 2.27858 au 
 T_jup = 3.401 
Orbit Covariance (6×6)
  e q tp node peri i
e 3.734721334565324E-15 -9.239963924776788E-15 2.034565281379901E-12 4.957968502060115E-16 3.644751163547898E-13 -4.692351560665833E-15
q -9.239963924776788E-15 2.308376732094326E-14 -5.018255293253173E-12 -8.006020166353178E-16 -8.886874303122922E-13 1.19707166937533E-14
tp 2.034565281379901E-12 -5.018255293253173E-12 5.874302396318959E-9 6.437141485343274E-13 1.275614817443166E-9 -1.15244511958759E-11
node 4.957968502060115E-16 -8.006020166353178E-16 6.437141485343274E-13 4.295462632048893E-9 -4.273725752820918E-9 2.618529107475679E-11
peri 3.644751163547898E-13 -8.886874303122922E-13 1.275614817443166E-9 -4.273725752820918E-9 4.551579378867004E-9 -2.838344120605171E-11
i -4.692351560665833E-15 1.19707166937533E-14 -1.15244511958759E-11 2.618529107475679E-11 -2.838344120605171E-11 3.511310146997014E-11

Ephemeris | Orbit Diagram | Orbital Elements | Mission Design | Physical Parameters | Discovery Circumstances | Close-Approach Data ]

Physical Parameter Table
Parameter Symbol Value Units Sigma Reference Notes
absolute magnitude H 16.4   n/a MPO475904  

233290 (2006 AM96)          Discovered 2006-Jan-06 by CSS at Catalina
Reference: 20100228/Numbers.arcLast Updated: 2010-03-03

[ show close-approach data ]
Alternate Designations
 2006 AM96 = 2004 PM78 
Ephemeris | Orbit Diagram | Orbital Elements | Mission Design | Physical Parameters | Discovery Circumstances | Close-Approach Data ]
ABOUT SSD CREDITS/AWARDS PRIVACY/COPYRIGHT GLOSSARY LINKS
FirstGov 2020-Jan-27 19:32 UT
(server date/time)  
NASA Home Page
Site Manager:   Ryan S. Park
Webmaster  Alan B. Chamberlin